Weather History for KFHR - January, 2014

Change the Weather History Date:

Tuesday, January 7, 2014

  Actual Average Record
Temperature  
Mean Temperature 42 °F -  
Max Temperature 46 °F 43 °F 54 °F (2002)
Min Temperature 39 °F 35 °F 30 °F (2005)
Degree Days  
Heating Degree Days 22    
Moisture  
Dew Point 42 °F    
Average Humidity 93    
Maximum Humidity 97    
Minimum Humidity 87    
Precipitation  
Precipitation 0.12 in - - ()
Sea Level Pressure  
Sea Level Pressure 30.02 in    
Wind  
Wind Speed 5 mph (ENE)    
Max Wind Speed 9 mph    
Max Gust Speed -    
Visibility 9 miles    
Events Rain    
Averages and records for this station are not official NWS values.
T = Trace of Precipitation, MM = Missing Value Source: NWS Daily Summary

Daily Weather History Graph

Daily Weather History Graph

Search for Another Location

Airport or City:

Trip Planner

Search our weather history database for the weather conditions in past years. The results will help you decide how hot, cold, wet, or windy it might be!

Date:

Astronomy

Jan. 07, 2014 Rise Set
Actual Time 8:03 AM PST 4:34 PM PST
Civil Twilight 7:26 AM PST 5:10 PM PST
Nautical Twilight 6:47 AM PST 5:50 PM PST
Astronomical Twilight 6:09 AM PST 6:28 PM PST
Moon 11:17 AM PST (1/7) No Moon Set
Length of Visible Light 9h 43m
Length of Day
8h 31m
Waxing Crescent, 46% of the Moon is Illuminated
Jan 7
Waxing Crescent
Jan 7
First Quarter
Jan 15
Full
Jan 23
Last Quarter
Jan 30
New

Hourly Weather History & Observations

Time (PST) Temp. Windchill Dew Point Humidity Pressure Visibility Wind Dir Wind Speed Gust Speed Precip Events Conditions
12:53 AM 39.9 °F 37.8 °F 37.0 °F 89% 30.12 in 10.0 mi North 3.5 mph - N/A   Overcast
1:53 AM 39.9 °F 36.7 °F 37.0 °F 89% 30.12 in 9.0 mi NE 4.6 mph - 0.00 in Rain Light Rain
2:53 AM 39.9 °F - 37.0 °F 89% 30.12 in 9.0 mi Calm Calm - 0.00 in Rain Light Rain
3:53 AM 41.0 °F 38.0 °F 39.0 °F 93% 30.09 in 10.0 mi ENE 4.6 mph - 0.00 in Rain Light Rain
4:03 AM 41.0 °F 39.0 °F 39.9 °F 96% 30.09 in 10.0 mi ENE 3.5 mph - 0.00 in Rain Light Rain
4:53 AM 41.0 °F 38.0 °F 39.0 °F 93% 30.09 in 10.0 mi North 4.6 mph - 0.00 in   Overcast
5:53 AM 43.0 °F 38.2 °F 39.9 °F 89% 30.05 in 9.0 mi East 8.1 mph - 0.00 in Rain Light Rain
6:33 AM 43.0 °F 39.5 °F 41.0 °F 93% 30.04 in 10.0 mi SE 5.8 mph - 0.00 in Rain Light Rain
6:53 AM 44.1 °F 42.5 °F 42.1 °F 93% 30.05 in 10.0 mi ESE 3.5 mph - 0.00 in Rain Light Rain
7:53 AM 43.0 °F 39.5 °F 42.1 °F 97% 30.04 in 5.0 mi NE 5.8 mph - 0.09 in Rain Light Rain
8:03 AM 43.0 °F 38.8 °F 42.1 °F 97% 30.03 in 7.0 mi NE 6.9 mph - 0.01 in Rain Light Rain
8:53 AM 43.0 °F 40.3 °F 42.1 °F 97% 30.04 in 10.0 mi ENE 4.6 mph - 0.03 in Rain Light Rain
9:26 AM 44.1 °F 41.5 °F 42.1 °F 93% 30.03 in 10.0 mi NE 4.6 mph - 0.00 in Rain Light Rain
9:53 AM 44.1 °F 41.5 °F 42.1 °F 93% 30.03 in 10.0 mi ENE 4.6 mph - 0.00 in   Overcast
10:53 AM 44.1 °F 42.5 °F 42.1 °F 93% 30.02 in 10.0 mi NNE 3.5 mph - N/A   Overcast
11:00 AM 44.1 °F 41.5 °F 42.1 °F 93% 30.02 in 10.0 mi NNE 4.6 mph - 0.00 in Rain Light Rain
11:53 AM 44.1 °F 41.5 °F 42.1 °F 93% 30.00 in 10.0 mi NE 4.6 mph - 0.00 in   Overcast
12:53 PM 44.1 °F 40.8 °F 43.0 °F 96% 29.98 in 10.0 mi ENE 5.8 mph - 0.00 in   Overcast
1:53 PM 45.0 °F 42.6 °F 43.0 °F 93% 29.98 in 9.0 mi ENE 4.6 mph - 0.00 in Rain Light Rain
2:11 PM 45.0 °F 42.6 °F 43.0 °F 93% 29.98 in 10.0 mi ENE 4.6 mph - 0.00 in Rain Light Rain
2:42 PM 45.0 °F 41.2 °F 43.0 °F 93% 29.98 in 9.0 mi Variable 6.9 mph - 0.00 in Rain Light Rain
2:53 PM 45.0 °F 41.8 °F 43.0 °F 93% 29.98 in 5.0 mi Variable 5.8 mph - 0.00 in Rain Light Rain
3:01 PM 45.0 °F 43.5 °F 43.0 °F 93% 29.98 in 6.0 mi Variable 3.5 mph - 0.00 in Rain Light Rain
3:49 PM 46.4 °F 42.9 °F 42.8 °F 87% 29.98 in 10.0 mi East 6.9 mph - 0.00 in   Overcast
3:53 PM 46.0 °F 42.5 °F 43.0 °F 89% 29.98 in 10.0 mi East 6.9 mph - 0.00 in   Overcast
4:25 PM 45.0 °F 40.6 °F 42.1 °F 90% 29.98 in 6.0 mi East 8.1 mph - 0.00 in Rain Light Rain
4:53 PM 44.1 °F 39.5 °F 42.1 °F 93% 29.99 in 10.0 mi East 8.1 mph - 0.00 in   Overcast
5:53 PM 44.1 °F 42.5 °F 42.1 °F 93% 29.99 in 10.0 mi SE 3.5 mph - 0.00 in   Overcast
6:06 PM 43.0 °F - 41.0 °F 93% 29.98 in 10.0 mi Calm Calm - N/A   Overcast
6:53 PM 44.1 °F 41.5 °F 42.1 °F 93% 29.98 in 10.0 mi NE 4.6 mph - N/A   Overcast
7:07 PM 44.1 °F 40.8 °F 42.1 °F 93% 29.98 in 10.0 mi ESE 5.8 mph - N/A   Overcast
7:53 PM 44.1 °F 40.8 °F 42.1 °F 93% 29.99 in 10.0 mi SE 5.8 mph - N/A   Overcast
8:53 PM 45.0 °F 40.6 °F 43.0 °F 93% 29.99 in 10.0 mi East 8.1 mph - N/A   Overcast
9:25 PM 45.0 °F 40.1 °F 43.0 °F 93% 29.99 in 10.0 mi East 9.2 mph - N/A   Overcast
9:53 PM 45.0 °F 41.2 °F 43.0 °F 93% 30.01 in 10.0 mi East 6.9 mph - N/A   Overcast
10:53 PM 45.0 °F 41.2 °F 43.0 °F 93% 30.00 in 10.0 mi ESE 6.9 mph - N/A   Overcast
11:53 PM 46.0 °F 42.5 °F 43.0 °F 89% 30.01 in 10.0 mi ESE 6.9 mph - N/A   Overcast